Regional Weather Roundup
Issued by NWS Upton, NY

Current Version | Previous Version | Text Only | Print | Product List | Glossary On
Versions: 1 2 3 4 5 6 7 8 9 10 11 12 13 14 15 16 17 18 19 20 21 22 23 24 25 26 27 28 29 30 31 32 33 34 35 36 37 38 39 40 41 42 43 44 45 46 47 48 49 50
000 ASUS41 KOKX 031704 RWROKX REGIONAL WEATHER ROUNDUP NATIONAL WEATHER SERVICE NEW YORK NY 100 PM EDT TUE MAY 03 2016 NOTE: "FAIR" INDICATES FEW OR NO CLOUDS BELOW 12,000 FEET WITH NO SIGNIFICANT WEATHER AND/OR OBSTRUCTIONS TO VISIBILITY. NYZ071-072-176-178-NJZ106-104-031800- NEW YORK CITY METRO AREA CITY SKY/WX TMP DP RH WIND PRES REMARKS CENTRAL PARK CLOUDY 52 49 89 E10G17 29.86F LAGUARDIA APRT DRIZZLE 53 52 96 NE16 29.83F KENNEDY INTL DRIZZLE 54 51 90 NE6 29.84F FOG NEWARK/LIBERTY DRIZZLE 54 53 97 NE8 29.83F BRNX BOT. GARD N/A 50 48 93 E5 29.83F TETERBORO CLOUDY 54 49 83 VRB3 29.83F HAZE $$ NYZ177-179-078>081-031800- LONG ISLAND NEW YORK CITY SKY/WX TMP DP RH WIND PRES REMARKS FARMINGDALE CLOUDY 53 51 93 NE7 29.83F ISLIP LGT RAIN 53 51 93 E8 29.84F VSB 1 SHIRLEY LGT RAIN 51 49 92 VRB5 29.84F FOG RIVERHEAD N/A 50 48 93 SE6 29.84F WESTHAMPTON LGT RAIN 48 48 100 VRB5 29.86F FOG EAST HAMPTON DRIZZLE 49 47 94 NE5 29.86S MONTAUK POINT N/A 49 48 97 NE7 29.87F $$ NYZ052-065-067-031800- HUDSON VALLEY CITY SKY/WX TMP DP RH WIND PRES REMARKS WHITE PLAINS DRIZZLE 52 50 93 SE8 29.83F NEWBURGH LGT RAIN 52 52 100 NE6 29.86F FOG MONTGOMERY CLOUDY 51 48 89 N9 29.85S POUGHKEEPSIE LGT RAIN 54 49 83 N7 29.85F ALBANY CLOUDY 53 41 63 NE8 29.88F $$ NJZ001-105-106-008-010-013-015-019>022-104-031800- NEW JERSEY CITY SKY/WX TMP DP RH WIND PRES REMARKS NEWARK/LIBERTY DRIZZLE 54 53 97 NE8 29.83F TETERBORO CLOUDY 54 49 83 VRB3 29.83F HAZE CALDWELL CLOUDY 53 50 89 E5 29.84F FOG MORRISTOWN LGT RAIN 54 52 94 E7 29.84F FOG SOMERVILLE CLOUDY 55 51 86 NE5 29.82F FOG SUSSEX LGT RAIN 51 47 86 N5 29.85F ANDOVER N/A 51 48 89 NE3 29.84F TRENTON CLOUDY 54 52 93 E9 29.82F FOG MILLVILLE CLOUDY 57 55 93 NE7 29.79F ATLANTIC CITY CLOUDY 54 53 97 NE9 29.80F FOG WRIGHTSTOWN CLOUDY 55 52 90 E9 29.79F TOMS RIVER CLOUDY 54 48 82 NE10 29.82F BELMAR CLOUDY 51 50 96 NE8 29.83F FOG $$ PAZ047>061-062-071-031800- EASTERN PENNSYLVANIA CITY SKY/WX TMP DP RH WIND PRES REMARKS PHILADELPHIA CLOUDY 57 52 83 NE12 29.81F ALLENTOWN LGT RAIN 56 51 84 NE9 29.83F SCRANTON CLOUDY 52 48 86 NE6 29.82F $$ CTZ002-004>006-009-010-012-RIZ004-006-007-MAZ004-011-015-031800- SOUTHERN NEW ENGLAND IN CT CITY SKY/WX TMP DP RH WIND PRES REMARKS BRADLEY INTL LGT RAIN 51 48 89 N8 29.86F HARTFORD CLOUDY 54 50 86 N3 29.86F FOG DANBURY LGT RAIN 52 49 89 NE6 29.85F FOG WTRBRY/OXFORD CLOUDY 52 46 82 E6 29.86F FOG BRIDGEPORT CLOUDY 51 49 92 E12 29.85F FOG MERIDEN CLOUDY 54 49 83 CALM 29.85F NEW HAVEN CLOUDY 51 50 96 SE6 29.85F FOG CHESTER CLOUDY 52 50 93 NE3 29.85 GROTON CLOUDY 52 52 100 NE6 29.85F WILLIMANTIC LGT RAIN 53 47 79 N7 29.87F IN RI CITY SKY/WX TMP DP RH WIND PRES REMARKS PROVIDENCE LGT RAIN 50 47 89 NE7 29.87F BLOCK ISLAND CLOUDY 48 47 96 NE12 29.86F WESTERLY CLOUDY 52 47 83 NE7 29.86F IN MA CITY SKY/WX TMP DP RH WIND PRES REMARKS BOSTON LGT RAIN 46 44 93 E6 29.89F WORCESTER CLOUDY 47 44 90 NE5 29.87F WESTFIELD CLOUDY 51 46 83 N8 29.87F PROVINCETOWN LGT RAIN 46 44 93 N9 29.89F NANTUCKET HVY RAIN 47 45 93 NE13 29.86S FOG $$ ANZ330-335-338-340-345-350-353-355-031800- COASTAL MARINE OBSERVATIONS STATION/POSITION TIME SKY/WX TEMP WIND PRES VSBY WAVE AIR SEA DIR/SP/G HT/PER (UTC) (F) (DEG/KT/KT) (MB) (MI) (FT/S) NY HARB ENTRANCE 1550 50 51 60/ 16/ 19 1009.7 3/ 9 20S FIRE ISLAND 1550 49 49 90/ 17/ 19 1009.4 4/ 4 GREAT SOUTH BAY 1600 51 56 70/ 14/ 17 N/A 23 SSW MONTAUK P 1650 47 47 70/ 16/ 19 1009.9 4/ 7 15 E BARNEGAT LI 1622 51 N/A 4/ 4 HUDSON CANYON 1550 49 49 1008.6 4/ 9 KINGS POINT 1600 51 53 1010.5 EXECUTION ROCKS NOT AVBL CENTRAL LI SOUND 1600 49 80/ 10/ 12 N/A 1/ 3 EASTERN LI SOUND 1600 49 48 100/ 6/ 8 N/A ROBBINS REEF 1612 52 50/ 12/ 15 1009.6 $$ >>>>>>>>>>>>>>>>>>>>>>>>>>>> KEY <<<<<<<<<<<<<<<<<<<<<<<<<<< > < > SKY/WX - SKY CONDITION/PRESENT WEATHER < > TMP - TEMPERATURE IN FAHRENHEIT < > DP - DEWPOINT IN FAHRENHEIT < > RH - RELATIVE HUMIDITY IN PERCENT < > WIND - DIRECTION AND SPEED IN MPH < > PRES - MEAN SEA LEVEL PRESSURE IN INCHES OF HG < > WCI - WIND CHILL INDEX < > VSB - VISIBILITY IN MILES < > HX - HEAT INDEX < > TC - TEMPERATURE IN CELSIUS < > VRB - VARIABLE WIND DIRECTION < > < >>>>>>>>>>>>>>>>>>>>>>>>>>>> KEY <<<<<<<<<<<<<<<<<<<<<<<<<<<

USA.gov is the U.S. government's official web portal to all federal, state and local government web resources and services.